Regional Weather Roundup
Issued by NWS Charleston, WV

Home | Current Version | Previous Version | Text Only | Print | Product List | Glossary Off
Versions: 1 2 3 4 5 6 7 8 9 10 11 12 13 14 15 16 17 18 19 20 21 22 23 24 25 26 27 28

000
ASUS41 KRLX 252210
RWRRLX
West Virginia Regional Weather Roundup
National Weather Service Charleston WV
600 PM EDT SUN JUN 25 2017

Note: "fair" indicates few or no clouds below 12,000 feet with no
significant weather and/or obstructions to visibility.

WVZ003-252300-
Northern Panhandle of West Virginia

CITY           SKY/WX    TMP DP  RH WIND       PRES   REMARKS
WHEELING       PTSUNNY   72  46  39 W15G30    30.05S
$$

WVZ009-252300-
Northwest West Virginia

CITY           SKY/WX    TMP DP  RH WIND       PRES   REMARKS
PARKERSBURG    PTSUNNY   77  50  38 W16       30.09F
$$

WVZ006-252300-
Western West Virginia

CITY           SKY/WX    TMP DP  RH WIND       PRES   REMARKS
HUNTINGTON     MOSUNNY   78  50  37 SW9       30.09F
$$

WVZ015-252300-
West Central West Virginia

CITY           SKY/WX    TMP DP  RH WIND       PRES   REMARKS
CHARLESTON     MOSUNNY   77  47  34 W10G20    30.10F
$$

WVZ022-031-252300-
North Central West Virginia

CITY           SKY/WX    TMP DP  RH WIND       PRES   REMARKS
CLARKSBURG     PTSUNNY   74  47  38 W12       30.08S
MORGANTOWN     MOSUNNY   76  44  32 W8        30.07F
$$

WVZ025-035-042-045-252300-
Southern West Virginia

CITY           SKY/WX    TMP DP  RH WIND       PRES   REMARKS
BECKLEY        PTSUNNY   69  44  40 NW10      30.17S
LOGAN            N/A     73  46  38 CALM      30.14F
BLUEFIELD      MOSUNNY   67  45  45 W8        30.18F
LEWISBURG      SUNNY     70  42  36 NW14      30.15S
$$

WVZ047-252300-
Northern Mountains of West Virginia

CITY           SKY/WX    TMP DP  RH WIND       PRES   REMARKS
ELKINS         MOSUNNY   72  46  39 W8        30.12F
$$

WVZ052-252300-
Eastern Panhandle of West Virginia

CITY           SKY/WX    TMP DP  RH WIND       PRES   REMARKS
MARTINSBURG    MOSUNNY   80  44  27 W15G22    30.01R
PETERSBURG     MOSUNNY   78  47  33 W16       30.06F
$$




USA.gov is the U.S. government's official web portal to all federal, state and local government web resources and services.